Погода в Лейдене

Нидерланды     52°09′36″N   4°28′55″E
темп.,
°C
ветер,
м/с
пор.,
м/с
влажн.,
%
обл.,
%
осадки,
мм/ч
давл.,
гПа
погр.,
м
10 августа, ср
ср1023:00+20св596712 0.0 1028396
02:00+18всв487480 0.0 1028299
05:00+17всв47795 0.0 1027260
08:00+18всв46755 0.0 1027213
11:00+23всв455811 0.0 1027419
14:00+26ссв44465 0.0 1025885
17:00+26с55505 0.0 1023970
20:00+25ссв68510 0.0 1023372
11 августа, чт
чт1123:00+22св510672 0.0 1023245
02:00+21всв510640 0.0 1023252
05:00+20в48650 0.0 1023189
08:00+20в36595 0.0 1023150
11:00+25в34425 0.0 1023324
14:00+28ссв34370 0.0 10221007
17:00+28с55430 0.0 10201113
20:00+26ссв69450 0.0 1020369
12 августа, пт
пт1223:00+24св511560 0.0 1020253
02:00+22всв511565 0.0 1020235
05:00+20в48580 0.0 1020172
08:00+21в36520 0.0 1020133
11:00+26в34360 0.0 1019325
14:00+29ссв34340 0.0 10181049
17:00+28с55420 0.0 10171208
20:00+27ссв69420 0.0 1016306
13 августа, сб
сб1323:00+25всв511450 0.0 1016289
02:00+23вюв46480 0.0 1016103
05:00+21юв35450 0.0 101685
08:00+22юв35430 0.0 101796
11:00+27вюв34333 0.0 1017357
14:00+30св23304 0.0 10161262
17:00+27с55415 0.0 10151365
20:00+26ссв46470 0.0 1014275
14 августа, вс
вс1423:00+24ссв36490 0.0 1015119
02:00+23вюв34505 0.0 101455
05:00+22вюв3547100 0.0 101476
08:00+22вюв3545100 0.0 101386
11:00+27вюв343796 0.0 1013296
14:00+29св3434100 0.0 10111665
17:00+29с45405 0.0 10091848
20:00+28св473983 0.0 1008430